Year,Month,Day,Hour,Minute,Value (Times are PST for temperature in C)
2009,08,02,00,00,16.20
2009,08,02,00,01,16.20
2009,08,02,00,02,16.20
2009,08,02,00,03,16.10
2009,08,02,00,04,16.10
2009,08,02,00,05,16.10
2009,08,02,00,06,16.10
2009,08,02,00,07,16.10
2009,08,02,00,08,16.00
2009,08,02,00,09,15.90
2009,08,02,00,10,16.00
2009,08,02,00,11,16.10
2009,08,02,00,12,16.10
2009,08,02,00,13,16.10
2009,08,02,00,14,16.10
2009,08,02,00,15,16.10
2009,08,02,00,16,16.10
2009,08,02,00,17,16.10
2009,08,02,00,18,16.10
2009,08,02,00,19,16.10
2009,08,02,00,20,16.10
2009,08,02,00,21,16.10
2009,08,02,00,22,16.10
2009,08,02,00,23,16.10
2009,08,02,00,24,16.10
2009,08,02,00,25,16.10
2009,08,02,00,26,16.10
2009,08,02,00,27,16.20
2009,08,02,00,28,16.20
2009,08,02,00,29,16.30
2009,08,02,00,30,16.30
2009,08,02,00,31,16.40
2009,08,02,00,32,16.40
2009,08,02,00,33,16.40
2009,08,02,00,34,16.40
2009,08,02,00,35,16.40
2009,08,02,00,36,16.40
2009,08,02,00,37,16.50
2009,08,02,00,38,16.60
2009,08,02,00,39,16.60
2009,08,02,00,40,16.60
2009,08,02,00,41,16.60
2009,08,02,00,42,16.60
2009,08,02,00,43,16.70
2009,08,02,00,44,16.70
2009,08,02,00,45,16.70
2009,08,02,00,46,16.70
2009,08,02,00,47,16.70
2009,08,02,00,48,16.70
2009,08,02,00,49,16.70
2009,08,02,00,50,16.80
2009,08,02,00,51,16.80
2009,08,02,00,52,16.90
2009,08,02,00,53,16.90
2009,08,02,00,54,16.90
2009,08,02,00,55,16.90
2009,08,02,00,56,16.90
2009,08,02,00,57,16.90
2009,08,02,00,58,16.90
2009,08,02,00,59,16.90
2009,08,02,01,00,16.90
2009,08,02,01,01,16.90
2009,08,02,01,02,16.90
2009,08,02,01,03,16.90
2009,08,02,01,04,16.80
2009,08,02,01,05,16.80
2009,08,02,01,06,16.80
2009,08,02,01,07,16.80
2009,08,02,01,08,16.70
2009,08,02,01,09,16.70
2009,08,02,01,10,16.70
2009,08,02,01,11,16.70
2009,08,02,01,12,16.70
2009,08,02,01,13,16.70
2009,08,02,01,14,16.70
2009,08,02,01,15,16.70
2009,08,02,01,16,16.70
2009,08,02,01,17,16.70
2009,08,02,01,18,16.70
2009,08,02,01,19,16.80
2009,08,02,01,20,16.80
2009,08,02,01,21,16.90
2009,08,02,01,22,16.90
2009,08,02,01,23,17.00
2009,08,02,01,24,17.00
2009,08,02,01,25,17.00
2009,08,02,01,26,17.10
2009,08,02,01,27,17.10
2009,08,02,01,28,17.10
2009,08,02,01,29,17.20
2009,08,02,01,30,17.20
2009,08,02,01,31,17.20
2009,08,02,01,32,17.30
2009,08,02,01,33,17.30
2009,08,02,01,34,17.30
2009,08,02,01,35,17.40
2009,08,02,01,36,17.40
2009,08,02,01,37,17.40
2009,08,02,01,38,17.50
2009,08,02,01,39,17.50
2009,08,02,01,40,17.50
2009,08,02,01,41,17.60
2009,08,02,01,42,17.60
2009,08,02,01,43,17.60
2009,08,02,01,44,17.70
2009,08,02,01,45,17.70
2009,08,02,01,46,17.70
2009,08,02,01,47,17.70
2009,08,02,01,48,17.70
2009,08,02,01,49,17.60
2009,08,02,01,50,17.50
2009,08,02,01,51,17.30
2009,08,02,01,52,17.20
2009,08,02,01,53,17.10
2009,08,02,01,54,17.00
2009,08,02,01,55,16.90
2009,08,02,01,56,16.70
2009,08,02,01,57,16.60
2009,08,02,01,58,16.40
2009,08,02,01,59,16.40
2009,08,02,02,00,16.30
2009,08,02,02,01,16.10
2009,08,02,02,02,16.00
2009,08,02,02,03,15.90
2009,08,02,02,04,15.80
2009,08,02,02,05,15.70
2009,08,02,02,06,15.70
2009,08,02,02,07,15.60
2009,08,02,02,08,15.60
2009,08,02,02,09,15.60
2009,08,02,02,10,15.50
2009,08,02,02,11,15.50
2009,08,02,02,12,15.50
2009,08,02,02,13,15.50
2009,08,02,02,14,15.50
2009,08,02,02,15,15.50
2009,08,02,02,16,15.50
2009,08,02,02,17,15.50
2009,08,02,02,18,15.50
2009,08,02,02,19,15.50
2009,08,02,02,20,15.50
2009,08,02,02,21,15.50
2009,08,02,02,22,15.50
2009,08,02,02,23,15.50
2009,08,02,02,24,15.50
2009,08,02,02,25,15.50
2009,08,02,02,26,15.50
2009,08,02,02,27,15.50
2009,08,02,02,28,15.50
2009,08,02,02,29,15.50
2009,08,02,02,30,15.50
2009,08,02,02,31,15.50
2009,08,02,02,32,15.50
2009,08,02,02,33,15.50
2009,08,02,02,34,15.50
2009,08,02,02,35,15.50
2009,08,02,02,36,15.60
2009,08,02,02,37,15.60
2009,08,02,02,38,15.60
2009,08,02,02,39,15.60
2009,08,02,02,40,15.60
2009,08,02,02,41,15.60
2009,08,02,02,42,15.60
2009,08,02,02,43,15.60
2009,08,02,02,44,15.60
2009,08,02,02,45,15.60
2009,08,02,02,46,15.60
2009,08,02,02,47,15.60
2009,08,02,02,48,15.60
2009,08,02,02,49,15.60
2009,08,02,02,50,15.60
2009,08,02,02,51,15.60
2009,08,02,02,52,15.60
2009,08,02,02,53,15.60
2009,08,02,02,54,15.70
2009,08,02,02,55,15.70
2009,08,02,02,56,15.70
2009,08,02,02,57,15.70
2009,08,02,02,58,15.70
2009,08,02,02,59,15.80
2009,08,02,03,00,15.80
2009,08,02,03,01,15.80
2009,08,02,03,02,15.80
2009,08,02,03,03,15.80
2009,08,02,03,04,15.80
2009,08,02,03,05,15.90
2009,08,02,03,06,15.90
2009,08,02,03,07,16.00
2009,08,02,03,08,16.10
2009,08,02,03,09,16.10
2009,08,02,03,10,16.10
2009,08,02,03,11,16.10
2009,08,02,03,12,16.10
2009,08,02,03,13,16.10
2009,08,02,03,14,16.10
2009,08,02,03,15,16.10
2009,08,02,03,16,16.10
2009,08,02,03,17,16.10
2009,08,02,03,18,16.10
2009,08,02,03,19,16.10
2009,08,02,03,20,16.20
2009,08,02,03,21,16.20
2009,08,02,03,22,16.20
2009,08,02,03,23,16.20
2009,08,02,03,24,16.20
2009,08,02,03,25,16.20
2009,08,02,03,26,16.20
2009,08,02,03,27,16.20
2009,08,02,03,28,16.20
2009,08,02,03,29,16.20
2009,08,02,03,30,16.20
2009,08,02,03,31,16.20
2009,08,02,03,32,16.20
2009,08,02,03,33,16.20
2009,08,02,03,34,16.10
2009,08,02,03,35,16.00
2009,08,02,03,36,15.80
2009,08,02,03,37,15.50
2009,08,02,03,38,15.30
2009,08,02,03,39,15.10
2009,08,02,03,40,15.00
2009,08,02,03,41,14.80
2009,08,02,03,42,14.60
2009,08,02,03,43,14.40
2009,08,02,03,44,14.20
2009,08,02,03,45,14.10
2009,08,02,03,46,13.90
2009,08,02,03,47,13.80
2009,08,02,03,48,13.70
2009,08,02,03,49,13.70
2009,08,02,03,50,13.70
2009,08,02,03,51,13.70
2009,08,02,03,52,13.70
2009,08,02,03,53,13.60
2009,08,02,03,54,13.60
2009,08,02,03,55,13.60
2009,08,02,03,56,13.60
2009,08,02,03,57,13.60
2009,08,02,03,58,13.60
2009,08,02,03,59,13.70
2009,08,02,04,00,13.70
2009,08,02,04,01,13.70
2009,08,02,04,02,13.70
2009,08,02,04,03,13.70
2009,08,02,04,04,13.70
2009,08,02,04,05,13.70
2009,08,02,04,06,13.70
2009,08,02,04,07,13.70
2009,08,02,04,08,13.70
2009,08,02,04,09,13.70
2009,08,02,04,10,13.70
2009,08,02,04,11,13.80
2009,08,02,04,12,13.80
2009,08,02,04,13,13.80
2009,08,02,04,14,13.80
2009,08,02,04,15,13.80
2009,08,02,04,16,13.90
2009,08,02,04,17,13.90
2009,08,02,04,18,14.00
2009,08,02,04,19,14.00
2009,08,02,04,20,14.00
2009,08,02,04,21,14.00
2009,08,02,04,22,14.00
2009,08,02,04,23,14.10
2009,08,02,04,24,14.10
2009,08,02,04,25,14.10
2009,08,02,04,26,14.10
2009,08,02,04,27,14.10
2009,08,02,04,28,14.20
2009,08,02,04,29,14.20
2009,08,02,04,30,14.20
2009,08,02,04,31,14.20
2009,08,02,04,32,14.20
2009,08,02,04,33,14.20
2009,08,02,04,34,14.30
2009,08,02,04,35,14.30
2009,08,02,04,36,14.40
2009,08,02,04,37,14.40
2009,08,02,04,38,14.50
2009,08,02,04,39,14.50
2009,08,02,04,40,14.60
2009,08,02,04,41,14.60
2009,08,02,04,42,14.60
2009,08,02,04,43,14.70
2009,08,02,04,44,14.70
2009,08,02,04,45,14.70
2009,08,02,04,46,14.80
2009,08,02,04,47,14.80
2009,08,02,04,48,14.80
2009,08,02,04,49,14.80
2009,08,02,04,50,14.80
2009,08,02,04,51,14.90
2009,08,02,04,52,14.90
2009,08,02,04,53,14.90
2009,08,02,04,54,14.90
2009,08,02,04,55,14.90
2009,08,02,04,56,15.00
2009,08,02,04,57,15.00
2009,08,02,04,58,15.00
2009,08,02,04,59,15.00
2009,08,02,05,00,15.10
2009,08,02,05,01,15.10
2009,08,02,05,02,15.10
2009,08,02,05,03,15.10
2009,08,02,05,04,15.10
2009,08,02,05,05,15.20
2009,08,02,05,06,15.20
2009,08,02,05,07,15.20
2009,08,02,05,08,15.30
2009,08,02,05,09,15.30
2009,08,02,05,10,15.30
2009,08,02,05,11,15.30
2009,08,02,05,12,15.30
2009,08,02,05,13,15.30
2009,08,02,05,14,15.30
2009,08,02,05,15,15.30
2009,08,02,05,16,15.30
2009,08,02,05,17,15.30
2009,08,02,05,18,15.30
2009,08,02,05,19,15.30
2009,08,02,05,20,15.30
2009,08,02,05,21,15.30
2009,08,02,05,22,15.20
2009,08,02,05,23,15.20
2009,08,02,05,24,15.10
2009,08,02,05,25,14.90
2009,08,02,05,26,14.70
2009,08,02,05,27,14.60
2009,08,02,05,28,14.40
2009,08,02,05,29,14.30
2009,08,02,05,30,14.20
2009,08,02,05,31,14.20
2009,08,02,05,32,14.20
2009,08,02,05,33,14.10
2009,08,02,05,34,14.00
2009,08,02,05,35,14.00
2009,08,02,05,36,14.00
2009,08,02,05,37,13.90
2009,08,02,05,38,13.90
2009,08,02,05,39,13.80
2009,08,02,05,40,13.70
2009,08,02,05,41,13.70
2009,08,02,05,42,13.70
2009,08,02,05,43,13.60
2009,08,02,05,44,13.60
2009,08,02,05,45,13.60
2009,08,02,05,46,13.50
2009,08,02,05,47,13.50
2009,08,02,05,48,13.50
2009,08,02,05,49,13.40
2009,08,02,05,50,13.40
2009,08,02,05,51,13.30
2009,08,02,05,52,13.30
2009,08,02,05,53,13.30
2009,08,02,05,54,13.30
2009,08,02,05,55,13.30
2009,08,02,05,56,13.30
2009,08,02,05,57,13.30
2009,08,02,05,58,13.30
2009,08,02,05,59,13.30
2009,08,02,06,00,13.30
2009,08,02,06,01,13.30
2009,08,02,06,02,13.30
2009,08,02,06,03,13.30
2009,08,02,06,04,13.30
2009,08,02,06,05,13.30
2009,08,02,06,06,13.30
2009,08,02,06,07,13.30
2009,08,02,06,08,13.30
2009,08,02,06,09,13.30
2009,08,02,06,10,13.30
2009,08,02,06,11,13.30
2009,08,02,06,12,13.30
2009,08,02,06,13,13.30
2009,08,02,06,14,13.30
2009,08,02,06,15,13.30
2009,08,02,06,16,13.40
2009,08,02,06,17,13.40
2009,08,02,06,18,13.40
2009,08,02,06,19,13.40
2009,08,02,06,20,13.40
2009,08,02,06,21,13.40
2009,08,02,06,22,13.40
2009,08,02,06,23,13.40
2009,08,02,06,24,13.40
2009,08,02,06,25,13.40
2009,08,02,06,26,13.50
2009,08,02,06,27,13.50
2009,08,02,06,28,13.50
2009,08,02,06,29,13.50
2009,08,02,06,30,13.50
2009,08,02,06,31,13.50
2009,08,02,06,32,13.50
2009,08,02,06,33,13.60
2009,08,02,06,34,13.60
2009,08,02,06,35,13.60
2009,08,02,06,36,13.60
2009,08,02,06,37,13.60
2009,08,02,06,38,13.60
2009,08,02,06,39,13.70
2009,08,02,06,40,13.70
2009,08,02,06,41,13.70
2009,08,02,06,42,13.70
2009,08,02,06,43,13.70
2009,08,02,06,44,13.80
2009,08,02,06,45,13.80
2009,08,02,06,46,13.90
2009,08,02,06,47,13.90
2009,08,02,06,48,14.00
2009,08,02,06,49,14.00
2009,08,02,06,50,14.10
2009,08,02,06,51,14.10
2009,08,02,06,52,14.20
2009,08,02,06,53,14.20
2009,08,02,06,54,14.20
2009,08,02,06,55,14.30
2009,08,02,06,56,14.30
2009,08,02,06,57,14.40
2009,08,02,06,58,14.40
2009,08,02,06,59,14.50
2009,08,02,07,00,14.50
2009,08,02,07,01,14.60
2009,08,02,07,02,14.60
2009,08,02,07,03,14.70
2009,08,02,07,04,14.70
2009,08,02,07,05,14.70
2009,08,02,07,06,14.70
2009,08,02,07,07,14.80
2009,08,02,07,08,14.80
2009,08,02,07,09,14.80
2009,08,02,07,10,14.80
2009,08,02,07,11,14.80
2009,08,02,07,12,14.80
2009,08,02,07,13,14.90
2009,08,02,07,14,14.90
2009,08,02,07,15,14.90
2009,08,02,07,16,14.90
2009,08,02,07,17,14.90
2009,08,02,07,18,15.00
2009,08,02,07,19,15.00
2009,08,02,07,20,15.10
2009,08,02,07,21,15.10
2009,08,02,07,22,15.20
2009,08,02,07,23,15.30
2009,08,02,07,24,15.30
2009,08,02,07,25,15.40
2009,08,02,07,26,15.50
2009,08,02,07,27,15.50
2009,08,02,07,28,15.60
2009,08,02,07,29,15.60
2009,08,02,07,30,15.70
2009,08,02,07,31,15.70
2009,08,02,07,32,15.80
2009,08,02,07,33,15.80
2009,08,02,07,34,15.80
2009,08,02,07,35,15.80
2009,08,02,07,36,15.80
2009,08,02,07,37,15.80
2009,08,02,07,38,15.90
2009,08,02,07,39,15.90
2009,08,02,07,40,15.90
2009,08,02,07,41,15.90
2009,08,02,07,42,16.00
2009,08,02,07,43,16.10
2009,08,02,07,44,16.10
2009,08,02,07,45,16.10
2009,08,02,07,46,16.20
2009,08,02,07,47,16.30
2009,08,02,07,48,16.40
2009,08,02,07,49,16.50
2009,08,02,07,50,16.60
2009,08,02,07,51,16.70
2009,08,02,07,52,16.70
2009,08,02,07,53,16.80
2009,08,02,07,54,16.80
2009,08,02,07,55,16.90
2009,08,02,07,56,16.90
2009,08,02,07,57,17.00
2009,08,02,07,58,17.10
2009,08,02,07,59,17.10
2009,08,02,08,00,17.10
2009,08,02,08,01,17.10
2009,08,02,08,02,17.10
2009,08,02,08,03,17.10
2009,08,02,08,04,17.20
2009,08,02,08,05,17.20
2009,08,02,08,06,17.20
2009,08,02,08,07,17.20
2009,08,02,08,08,17.30
2009,08,02,08,09,17.30
2009,08,02,08,10,17.40
2009,08,02,08,11,17.40
2009,08,02,08,12,17.40
2009,08,02,08,13,17.40
2009,08,02,08,14,17.40
2009,08,02,08,15,17.40
2009,08,02,08,16,17.40
2009,08,02,08,17,17.40
2009,08,02,08,18,17.40
2009,08,02,08,19,17.40
2009,08,02,08,20,17.40
2009,08,02,08,21,17.40
2009,08,02,08,22,17.40
2009,08,02,08,23,17.40
2009,08,02,08,24,17.50
2009,08,02,08,25,17.50
2009,08,02,08,26,17.60
2009,08,02,08,27,17.70
2009,08,02,08,28,17.80
2009,08,02,08,29,17.90
2009,08,02,08,30,18.10
2009,08,02,08,31,18.20
2009,08,02,08,32,18.30
2009,08,02,08,33,18.40
2009,08,02,08,34,18.50
2009,08,02,08,35,18.60
2009,08,02,08,36,18.70
2009,08,02,08,37,18.80
2009,08,02,08,38,18.90
2009,08,02,08,39,19.00
2009,08,02,08,40,19.10
2009,08,02,08,41,19.10
2009,08,02,08,42,19.20
2009,08,02,08,43,19.20
2009,08,02,08,44,19.30
2009,08,02,08,45,19.30
2009,08,02,08,46,19.30
2009,08,02,08,47,19.30
2009,08,02,08,48,19.30
2009,08,02,08,49,19.30
2009,08,02,08,50,19.30
2009,08,02,08,51,19.20
2009,08,02,08,52,19.10
2009,08,02,08,53,19.10
2009,08,02,08,54,19.10
2009,08,02,08,55,19.10
2009,08,02,08,56,18.90
2009,08,02,08,57,18.80
2009,08,02,08,58,18.70
2009,08,02,08,59,18.60
2009,08,02,09,00,18.60
2009,08,02,09,01,18.50
2009,08,02,09,02,18.40
2009,08,02,09,03,18.40
2009,08,02,09,04,18.50
2009,08,02,09,05,18.50
2009,08,02,09,06,18.60
2009,08,02,09,07,18.60
2009,08,02,09,08,18.70
2009,08,02,09,09,18.70
2009,08,02,09,10,18.80
2009,08,02,09,11,18.80
2009,08,02,09,12,18.80
2009,08,02,09,13,18.90
2009,08,02,09,14,18.90
2009,08,02,09,15,18.90
2009,08,02,09,16,19.00
2009,08,02,09,17,19.10
2009,08,02,09,18,19.30
2009,08,02,09,19,19.40
2009,08,02,09,20,19.50
2009,08,02,09,21,19.60
2009,08,02,09,22,19.70
2009,08,02,09,23,19.80
2009,08,02,09,24,19.90
2009,08,02,09,25,19.90
2009,08,02,09,26,20.00
2009,08,02,09,27,20.10
2009,08,02,09,28,20.20
2009,08,02,09,29,20.20
2009,08,02,09,30,20.20
2009,08,02,09,31,20.30
2009,08,02,09,32,20.30
2009,08,02,09,33,20.40
2009,08,02,09,34,20.40
2009,08,02,09,35,20.50
2009,08,02,09,36,20.50
2009,08,02,09,37,20.60
2009,08,02,09,38,20.70
2009,08,02,09,39,20.70
2009,08,02,09,40,20.80
2009,08,02,09,41,20.80
2009,08,02,09,42,20.70
2009,08,02,09,43,20.70
2009,08,02,09,44,20.70
2009,08,02,09,45,20.60
2009,08,02,09,46,20.60
2009,08,02,09,47,20.60
2009,08,02,09,48,20.70
2009,08,02,09,49,20.70
2009,08,02,09,50,20.70
2009,08,02,09,51,20.70
2009,08,02,09,52,20.70
2009,08,02,09,53,20.60
2009,08,02,09,54,20.60
2009,08,02,09,55,20.50
2009,08,02,09,56,20.50
2009,08,02,09,57,20.50
2009,08,02,09,58,20.50
2009,08,02,09,59,20.50
2009,08,02,10,00,20.50
2009,08,02,10,01,20.60
2009,08,02,10,02,20.70
2009,08,02,10,03,20.70
2009,08,02,10,04,20.80
2009,08,02,10,05,20.90
2009,08,02,10,06,21.00
2009,08,02,10,07,21.00
2009,08,02,10,08,21.10
2009,08,02,10,09,21.20
2009,08,02,10,10,21.20
2009,08,02,10,11,21.10
2009,08,02,10,12,21.00
2009,08,02,10,13,21.00
2009,08,02,10,14,21.00
2009,08,02,10,15,20.90
2009,08,02,10,16,20.90
2009,08,02,10,17,20.90
2009,08,02,10,18,20.90
2009,08,02,10,19,20.90
2009,08,02,10,20,21.00
2009,08,02,10,21,21.10
2009,08,02,10,22,21.20
2009,08,02,10,23,21.20
2009,08,02,10,24,21.30
2009,08,02,10,25,21.30
2009,08,02,10,26,21.30
2009,08,02,10,27,21.30
2009,08,02,10,28,21.30
2009,08,02,10,29,21.30
2009,08,02,10,30,21.40
2009,08,02,10,31,21.50
2009,08,02,10,32,21.60
2009,08,02,10,33,21.80
2009,08,02,10,34,21.90
2009,08,02,10,35,21.90
2009,08,02,10,36,21.90
2009,08,02,10,37,22.00
2009,08,02,10,38,22.00
2009,08,02,10,39,22.10
2009,08,02,10,40,22.20
2009,08,02,10,41,22.30
2009,08,02,10,42,22.40
2009,08,02,10,43,22.50
2009,08,02,10,44,22.60
2009,08,02,10,45,22.60
2009,08,02,10,46,22.70
2009,08,02,10,47,22.80
2009,08,02,10,48,22.80
2009,08,02,10,49,22.90
2009,08,02,10,50,22.90
2009,08,02,10,51,22.90
2009,08,02,10,52,22.90
2009,08,02,10,53,22.90
2009,08,02,10,54,22.80
2009,08,02,10,55,22.80
2009,08,02,10,56,22.90
2009,08,02,10,57,22.90
2009,08,02,10,58,23.00
2009,08,02,10,59,23.10
2009,08,02,11,00,23.20
2009,08,02,11,01,23.20
2009,08,02,11,02,23.10
2009,08,02,11,03,23.00
2009,08,02,11,04,22.90
2009,08,02,11,05,22.80
2009,08,02,11,06,22.70
2009,08,02,11,07,22.70
2009,08,02,11,08,22.60
2009,08,02,11,09,22.60
2009,08,02,11,10,22.60
2009,08,02,11,11,22.60
2009,08,02,11,12,22.70
2009,08,02,11,13,22.80
2009,08,02,11,14,22.70
2009,08,02,11,15,22.40
2009,08,02,11,16,22.20
2009,08,02,11,17,22.00
2009,08,02,11,18,21.90
2009,08,02,11,19,21.90
2009,08,02,11,20,21.90
2009,08,02,11,21,21.80
2009,08,02,11,22,21.80
2009,08,02,11,23,21.90
2009,08,02,11,24,22.00
2009,08,02,11,25,22.10
2009,08,02,11,26,22.20
2009,08,02,11,27,22.20
2009,08,02,11,28,22.30
2009,08,02,11,29,22.40
2009,08,02,11,30,22.40
2009,08,02,11,31,22.30
2009,08,02,11,32,22.30
2009,08,02,11,33,22.30
2009,08,02,11,34,22.40
2009,08,02,11,35,22.50
2009,08,02,11,36,22.60
2009,08,02,11,37,22.80
2009,08,02,11,38,22.90
2009,08,02,11,39,23.00
2009,08,02,11,40,23.10
2009,08,02,11,41,23.30
2009,08,02,11,42,23.40
2009,08,02,11,43,23.60
2009,08,02,11,44,23.70
2009,08,02,11,45,23.70
2009,08,02,11,46,23.70
2009,08,02,11,47,23.80
2009,08,02,11,48,23.90
2009,08,02,11,49,24.00
2009,08,02,11,50,24.10
2009,08,02,11,51,24.10
2009,08,02,11,52,24.10
2009,08,02,11,53,24.10
2009,08,02,11,54,24.10
2009,08,02,11,55,24.00
2009,08,02,11,56,23.90
2009,08,02,11,57,23.80
2009,08,02,11,58,23.70
2009,08,02,11,59,23.70
2009,08,02,12,00,23.70
2009,08,02,12,01,23.80
2009,08,02,12,02,23.90
2009,08,02,12,03,24.00
2009,08,02,12,04,24.10
2009,08,02,12,05,24.00
2009,08,02,12,06,24.10
2009,08,02,12,07,24.10
2009,08,02,12,08,24.10
2009,08,02,12,09,24.20
2009,08,02,12,10,24.30
2009,08,02,12,11,24.40
2009,08,02,12,12,24.40
2009,08,02,12,13,24.40
2009,08,02,12,14,24.50
2009,08,02,12,15,24.40
2009,08,02,12,16,24.30
2009,08,02,12,17,24.20
2009,08,02,12,18,24.10
2009,08,02,12,19,24.10
2009,08,02,12,20,24.10
2009,08,02,12,21,24.20
2009,08,02,12,22,24.20
2009,08,02,12,23,24.20
2009,08,02,12,24,24.20
2009,08,02,12,25,24.30
2009,08,02,12,26,24.30
2009,08,02,12,27,24.40
2009,08,02,12,28,24.50
2009,08,02,12,29,24.60
2009,08,02,12,30,24.70
2009,08,02,12,31,24.80
2009,08,02,12,32,24.90
2009,08,02,12,33,24.90
2009,08,02,12,34,24.90
2009,08,02,12,35,24.80
2009,08,02,12,36,24.80
2009,08,02,12,37,24.80
2009,08,02,12,38,24.90
2009,08,02,12,39,24.90
2009,08,02,12,40,24.80
2009,08,02,12,41,24.70
2009,08,02,12,42,24.60
2009,08,02,12,43,24.50
2009,08,02,12,44,24.40
2009,08,02,12,45,24.40
2009,08,02,12,46,24.50
2009,08,02,12,47,24.50
2009,08,02,12,48,24.60
2009,08,02,12,49,24.70
2009,08,02,12,50,24.70
2009,08,02,12,51,24.80
2009,08,02,12,52,24.90
2009,08,02,12,53,25.00
2009,08,02,12,54,25.20
2009,08,02,12,55,25.20
2009,08,02,12,56,25.20
2009,08,02,12,57,25.20
2009,08,02,12,58,25.20
2009,08,02,12,59,25.30
2009,08,02,13,00,25.40
2009,08,02,13,01,25.50
2009,08,02,13,02,25.60
2009,08,02,13,03,25.70
2009,08,02,13,04,25.80
2009,08,02,13,05,25.90
2009,08,02,13,06,25.90
2009,08,02,13,07,25.90
2009,08,02,13,08,25.90
2009,08,02,13,09,25.90
2009,08,02,13,10,25.90
2009,08,02,13,11,25.80
2009,08,02,13,12,25.70
2009,08,02,13,13,25.60
2009,08,02,13,14,25.60
2009,08,02,13,15,25.60
2009,08,02,13,16,25.70
2009,08,02,13,17,25.80
2009,08,02,13,18,25.90
2009,08,02,13,19,25.90
2009,08,02,13,20,25.90
2009,08,02,13,21,25.90
2009,08,02,13,22,25.80
2009,08,02,13,23,25.70
2009,08,02,13,24,25.70
2009,08,02,13,25,25.70
2009,08,02,13,26,25.70
2009,08,02,13,27,25.70
2009,08,02,13,28,25.70
2009,08,02,13,29,25.50
2009,08,02,13,30,25.40
2009,08,02,13,31,25.20
2009,08,02,13,32,24.90
2009,08,02,13,33,24.70
2009,08,02,13,34,24.50
2009,08,02,13,35,24.40
2009,08,02,13,36,24.30
2009,08,02,13,37,24.20
2009,08,02,13,38,24.10
2009,08,02,13,39,24.20
2009,08,02,13,40,24.20
2009,08,02,13,41,24.20
2009,08,02,13,42,24.20
2009,08,02,13,43,24.30
2009,08,02,13,44,24.30
2009,08,02,13,45,24.30
2009,08,02,13,46,24.40
2009,08,02,13,47,24.40
2009,08,02,13,48,24.50
2009,08,02,13,49,24.50
2009,08,02,13,50,24.50
2009,08,02,13,51,24.60
2009,08,02,13,52,24.60
2009,08,02,13,53,24.70
2009,08,02,13,54,24.80
2009,08,02,13,55,24.80
2009,08,02,13,56,24.90
2009,08,02,13,57,25.00
2009,08,02,13,58,25.00
2009,08,02,13,59,25.10
2009,08,02,14,00,25.10
2009,08,02,14,01,25.20
2009,08,02,14,02,25.20
2009,08,02,14,03,25.20
2009,08,02,14,04,25.30
2009,08,02,14,05,25.20
2009,08,02,14,06,25.20
2009,08,02,14,07,25.10
2009,08,02,14,08,25.10
2009,08,02,14,09,25.10
2009,08,02,14,10,25.00
2009,08,02,14,11,25.00
2009,08,02,14,12,25.10
2009,08,02,14,13,25.10
2009,08,02,14,14,25.20
2009,08,02,14,15,25.20
2009,08,02,14,16,25.40
2009,08,02,14,17,25.40
2009,08,02,14,18,25.40
2009,08,02,14,19,25.40
2009,08,02,14,20,25.40
2009,08,02,14,21,25.40
2009,08,02,14,22,25.50
2009,08,02,14,23,25.50
2009,08,02,14,24,25.50
2009,08,02,14,25,25.60
2009,08,02,14,26,25.60
2009,08,02,14,27,25.70
2009,08,02,14,28,25.80
2009,08,02,14,29,25.90
2009,08,02,14,30,25.90
2009,08,02,14,31,25.90
2009,08,02,14,32,26.00
2009,08,02,14,33,26.00
2009,08,02,14,34,26.00
2009,08,02,14,35,26.00
2009,08,02,14,36,26.00
2009,08,02,14,37,25.90
2009,08,02,14,38,25.90
2009,08,02,14,39,25.80
2009,08,02,14,40,25.70
2009,08,02,14,41,25.50
2009,08,02,14,42,25.50
2009,08,02,14,43,25.40
2009,08,02,14,44,25.40
2009,08,02,14,45,25.40
2009,08,02,14,46,25.40
2009,08,02,14,47,25.40
2009,08,02,14,48,25.30
2009,08,02,14,49,25.30
2009,08,02,14,50,25.30
2009,08,02,14,51,25.30
2009,08,02,14,52,25.40
2009,08,02,14,53,25.30
2009,08,02,14,54,25.30
2009,08,02,14,55,25.20
2009,08,02,14,56,25.10
2009,08,02,14,57,25.10
2009,08,02,14,58,25.10
2009,08,02,14,59,25.20
2009,08,02,15,00,25.30
2009,08,02,15,01,25.30
2009,08,02,15,02,25.30
2009,08,02,15,03,25.30
2009,08,02,15,04,25.20
2009,08,02,15,05,25.20
2009,08,02,15,06,25.10
2009,08,02,15,07,25.00
2009,08,02,15,08,25.00
2009,08,02,15,09,24.90
2009,08,02,15,10,24.90
2009,08,02,15,11,24.90
2009,08,02,15,12,24.90
2009,08,02,15,13,24.90
2009,08,02,15,14,24.90
2009,08,02,15,15,24.80
2009,08,02,15,16,24.80
2009,08,02,15,17,24.80
2009,08,02,15,18,24.90
2009,08,02,15,19,24.90
2009,08,02,15,20,24.90
2009,08,02,15,21,25.00
2009,08,02,15,22,25.00
2009,08,02,15,23,25.00
2009,08,02,15,24,24.90
2009,08,02,15,25,24.90
2009,08,02,15,26,24.90
2009,08,02,15,27,24.90
2009,08,02,15,28,24.90
2009,08,02,15,29,25.00
2009,08,02,15,30,25.00
2009,08,02,15,31,25.00
2009,08,02,15,32,25.00
2009,08,02,15,33,24.90
2009,08,02,15,34,24.80
2009,08,02,15,35,24.60
2009,08,02,15,36,24.50
2009,08,02,15,37,24.50
2009,08,02,15,38,24.50
2009,08,02,15,39,24.60
2009,08,02,15,40,24.60
2009,08,02,15,41,24.60
2009,08,02,15,42,24.70
2009,08,02,15,43,24.70
2009,08,02,15,44,24.70
2009,08,02,15,45,24.70
2009,08,02,15,46,24.70
2009,08,02,15,47,24.80
2009,08,02,15,48,24.80
2009,08,02,15,49,24.80
2009,08,02,15,50,24.80
2009,08,02,15,51,24.80
2009,08,02,15,52,24.80
2009,08,02,15,53,24.80
2009,08,02,15,54,24.80
2009,08,02,15,55,24.80
2009,08,02,15,56,24.90
2009,08,02,15,57,24.90
2009,08,02,15,58,25.00
2009,08,02,15,59,25.10
2009,08,02,16,00,25.10
2009,08,02,16,01,25.10
2009,08,02,16,02,25.20
2009,08,02,16,03,25.20
2009,08,02,16,04,25.20
2009,08,02,16,05,25.10
2009,08,02,16,06,25.20
2009,08,02,16,07,25.20
2009,08,02,16,08,25.20
2009,08,02,16,09,25.20
2009,08,02,16,10,25.20
2009,08,02,16,11,25.20
2009,08,02,16,12,25.30
2009,08,02,16,13,25.30
2009,08,02,16,14,25.20
2009,08,02,16,15,25.30
2009,08,02,16,16,25.30
2009,08,02,16,17,25.30
2009,08,02,16,18,25.30
2009,08,02,16,19,25.10
2009,08,02,16,20,25.00
2009,08,02,16,21,25.00
2009,08,02,16,22,25.00
2009,08,02,16,23,25.00
2009,08,02,16,24,25.00
2009,08,02,16,25,25.00
2009,08,02,16,26,25.00
2009,08,02,16,27,25.00
2009,08,02,16,28,24.90
2009,08,02,16,29,24.90
2009,08,02,16,30,24.80
2009,08,02,16,31,24.80
2009,08,02,16,32,24.80
2009,08,02,16,33,24.90
2009,08,02,16,34,24.90
2009,08,02,16,35,25.00
2009,08,02,16,36,25.10
2009,08,02,16,37,25.20
2009,08,02,16,38,25.20
2009,08,02,16,39,25.20
2009,08,02,16,40,25.30
2009,08,02,16,41,25.30
2009,08,02,16,42,25.20
2009,08,02,16,43,25.20
2009,08,02,16,44,25.10
2009,08,02,16,45,24.90
2009,08,02,16,46,24.90
2009,08,02,16,47,24.80
2009,08,02,16,48,24.80
2009,08,02,16,49,24.90
2009,08,02,16,50,24.90
2009,08,02,16,51,25.00
2009,08,02,16,52,25.00
2009,08,02,16,53,25.00
2009,08,02,16,54,25.00
2009,08,02,16,55,25.00
2009,08,02,16,56,25.00
2009,08,02,16,57,24.90
2009,08,02,16,58,24.90
2009,08,02,16,59,24.90
2009,08,02,17,00,24.90
2009,08,02,17,01,24.90
2009,08,02,17,02,24.80
2009,08,02,17,03,24.80
2009,08,02,17,04,24.70
2009,08,02,17,05,24.60
2009,08,02,17,06,24.60
2009,08,02,17,07,24.50
2009,08,02,17,08,24.50
2009,08,02,17,09,24.40
2009,08,02,17,10,24.40
2009,08,02,17,11,24.30
2009,08,02,17,12,24.30
2009,08,02,17,13,24.30
2009,08,02,17,14,24.30
2009,08,02,17,15,24.30
2009,08,02,17,16,24.30
2009,08,02,17,17,24.20
2009,08,02,17,18,24.20
2009,08,02,17,19,24.20